Temp
46 40 39 45 48 48 46 44 44 50 54 49 50 52 57 64 66 65 66 69 72 74 79 80 74 72 70 70 72 70 68 67 66 65 67 69 70 71 72 73 73 75 75 73
41 37 47 49 46 43 42 40 41 48 52 49 47 47 55 59 61 64 64 67 70 73 76 77 76 71 69 68 69 69 70 68 66 66 66 71 72 72 72 72 72 74 73 73
36 45 49 45 43 39 41 39 40 41 47 49 46 45 52 58 60 62 65 67 69 70 72 75 75 71 69 68 69 70 70 68 68 66 66 69 72 71 68 68 69 70 73 72
42 49 44 43 41 43 36 47 45 41 38 35 49 34 48 57 59 61 62 63 66 68 71 74 75 72 70 69 70 70 70 69 68 67 65 66 67 65 69 70 70 69 71 71
41 43 42 39 42 45 40 46 43 42 38 36 39 34 44 55 52 57 63 65 67 69 72 73 74 75 74 71 70 70 69 70 68 66 67 67 68 69 70 69 68 68 69 70
39 48 43 44 47 46 47 41 41 41 36 26 36 36 40 47 53 58 62 65 67 69 71 75 76 77 75 73 72 69 68 67 68 66 66 68 67 68 67 66 67 67 68 68
40 43 45 45 38 44 41 32 28 25 24 26 44 37 41 52 55 58 58 63 66 69 70 73 74 75 75 71 70 69 69 66 67 66 66 67 69 68 68 67 68 67 67 65
31 31 42 45 40 38 34 35 29 23 25 31 43 33 42 56 58 61 62 62 63 65 69 72 74 75 75 71 70 69 67 67 68 66 65 66 68 70 70 70 69 69 68 67
30 32 46 46 46 41 33 31 41 29 33 27 36 44 53 50 50 54 54 56 57 61 64 68 70 72 75 73 70 69 67 67 69 68 67 65 67 68 69 70 70 70 70 68
33 28 34 39 40 39 35 40 29 30 22 22 33 36 37 38 40 45 45 50 53 55 58 61 65 69 74 75 72 71 70 67 68 69 69 68 68 68 68 70 69 69 70 69
34 32 32 35 32 33 32 31 35 37 33 24 23 30 35 34 36 36 39 46 46 50 53 55 57 60 65 74 73 70 69 68 67 69 70 68 68 69 68 68 70 70 69 69
37 32 29 32 37 41 40 38 37 28 26 29 27 29 35 34 35 37 37 40 44 47 49 49 49 49 52 54 59 68 68 68 68 69 70 68 68 68 67 67 68 69 68 68
36 32 28 31 33 37 33 39 39 39 34 28 25 30 35 35 34 36 36 37 40 43 44 45 45 44 44 46 48 51 52 54 63 68 68 67 67 67 67 67 67 67 66 66
39 32 31 27 30 33 30 32 34 33 28 30 31 31 31 32 32 33 33 35 38 40 41 41 41 41 41 43 44 45 47 50 52 57 61 62 64 66 67 67 66 64 63 63
38 30 32 33 34 34 32 31 31 30 34 29 29 28 30 32 31 32 33 35 36 36 37 38 38 38 39 39 40 43 44 46 48 48 48 48 50 52 56 60 62 61 61 62
40 31 32 31 33 33 31 34 32 31 31 32 32 30 33 35 34 33 33 34 34 35 37 37 37 37 36 37 38 40 41 41 43 43 42 43 44 45 45 47 49 51 54 57
33 31 30 29 32 32 30 30 31 32 32 32 29 31 35 34 34 33 34 35 34 34 36 36 36 36 36 36 37 37 38 40 39 38 39 38 39 40 41 42 43 44 45 46
31 30 31 29 31 25 32 36 36 33 33 34 34 34 36 38 40 39 40 38 36 36 36 37 37 38 39 39 39 39 37 37 36 35 36 35 35 36 37 38 39 41 41 42
37 34 28 27 29 31 33 36 33 31 32 35 34 37 38 41 45 41 41 40 38 37 36 35 36 36 37 36 38 38 36 36 34 32 33 33 34 34 35 36 37 38 38 38
38 38 30 29 27 26 35 40 42 39 32 42 40 41 41 43 37 38 41 40 39 38 36 34 34 34 33 33 36 35 33 33 31 31 32 33 34 33 34 35 35 36 36 35
28 30 29 29 29 33 41 41 42 29 35 43 43 43 41 40 40 42 41 39 38 36 35 36 35 32 30 30 32 32 32 29 30 31 32 33 34 33 34 34 35 35 35 35
29 29 30 28 28 28 42 39 34 40 43 43 44 44 42 42 42 41 41 39 38 36 34 33 33 31 30 29 31 31 29 29 29 30 33 33 33 33 34 33 34 34 34 34
28 35 32 34 36 40 42 41 43 43 44 42 43 43 43 42 42 42 41 39 36 35 33 31 30 29 29 27 27 27 26 27 26 30 31 32 32 33 33 33 33 33 34 34
33 35 31 30 36 39 42 43 43 44 43 42 42 42 43 42 41 42 40 38 37 32 29 28 28 26 25 26 26 25 25 25 27 29 30 31 31 32 33 34 34 33 33 33
35 32 30 30 34 35 38 41 44 42 42 41 42 42 41 41 41 40 38 35 33 31 28 25 25 26 24 25 25 24 22 22 25 29 30 31 31 31 32 33 33 34 35 34
33 33 33 36 38 41 42 41 42 40 40 40 39 38 36 34 34 33 32 30 29 28 27 25 27 25 25 24 23 22 20 20 22 28 29 29 30 30 31 31 32 37 37 37
MSLP
1019.09 1018.57 1017.38 1016.73 1016.69 1016.23 1015.73 1015.35 1014.46 1013.67 1013.49 1013.33 1011.94 1010.79 1009.81 1008.89 1008.36 1008.01 1007.86 1007.44 1007.14 1006.95 1007.22 1008.00 1009.26 1010.61 1011.67 1012.19 1012.34 1013.18 1014.16 1015.17 1015.90 1016.33 1016.54 1016.79 1016.80 1017.42 1017.74 1017.93 1018.33 1018.74 1019.14 1019.67
1019.13 1018.12 1017.36 1017.18 1017.21 1017.14 1016.52 1015.85 1015.11 1014.27 1013.99 1013.84 1012.68 1010.75 1009.99 1009.13 1008.39 1007.90 1007.92 1007.41 1007.08 1006.92 1006.93 1007.52 1008.36 1009.96 1010.82 1011.37 1011.86 1012.51 1013.24 1014.22 1015.11 1015.75 1016.16 1016.45 1016.66 1017.02 1017.35 1017.63 1017.84 1018.18 1018.71 1019.21
1018.97 1017.70 1017.46 1017.43 1017.36 1017.28 1016.77 1016.18 1015.47 1015.12 1014.60 1014.11 1013.06 1010.03 1008.57 1008.00 1007.91 1007.81 1007.45 1007.31 1007.11 1006.76 1006.70 1006.91 1007.45 1008.86 1009.94 1010.57 1011.10 1011.48 1011.80 1013.19 1014.23 1015.09 1015.76 1016.12 1016.23 1016.71 1017.00 1017.17 1017.51 1017.84 1018.18 1018.76
1018.47 1017.64 1017.59 1017.33 1017.19 1017.29 1016.69 1016.14 1015.98 1015.91 1015.70 1014.17 1013.25 1010.46 1008.57 1007.37 1006.47 1006.25 1006.66 1006.94 1006.65 1006.46 1006.34 1006.30 1006.54 1007.68 1008.82 1009.69 1010.39 1011.07 1011.86 1012.46 1013.48 1014.38 1014.91 1015.02 1014.83 1015.13 1015.50 1016.27 1016.90 1017.44 1017.85 1018.10
1018.25 1017.73 1017.55 1017.37 1017.13 1017.21 1016.89 1016.95 1016.72 1016.40 1015.83 1015.01 1013.87 1013.08 1008.26 1007.38 1006.49 1005.81 1005.64 1005.86 1006.08 1006.15 1006.02 1005.92 1006.02 1006.50 1007.58 1008.74 1009.42 1010.06 1010.83 1011.90 1012.88 1013.42 1013.82 1014.27 1014.33 1014.40 1015.07 1015.80 1016.41 1016.98 1017.36 1017.56
1018.79 1018.18 1018.15 1017.36 1017.10 1017.25 1017.30 1017.52 1016.98 1016.65 1016.32 1014.84 1013.40 1012.65 1007.74 1007.06 1006.24 1005.96 1005.93 1005.85 1005.63 1005.46 1005.24 1005.11 1005.39 1005.62 1006.12 1007.62 1008.54 1009.29 1009.93 1010.59 1011.83 1012.82 1013.10 1013.21 1013.42 1013.83 1014.34 1014.90 1015.51 1016.03 1016.46 1016.93
1018.26 1017.27 1017.43 1017.78 1017.74 1017.44 1017.80 1018.15 1017.00 1016.62 1015.98 1013.79 1012.21 1011.38 1007.95 1007.21 1007.46 1006.82 1006.60 1005.90 1005.55 1005.10 1005.02 1004.62 1004.46 1004.71 1005.16 1006.25 1007.42 1008.50 1009.04 1009.69 1010.66 1011.59 1012.20 1012.38 1012.68 1013.28 1013.48 1013.75 1014.35 1014.95 1015.46 1015.97
1018.99 1017.46 1017.12 1017.69 1017.88 1017.62 1017.94 1018.13 1017.28 1016.10 1014.95 1013.13 1011.81 1009.77 1008.46 1007.66 1007.50 1007.08 1006.93 1006.71 1006.41 1005.70 1005.15 1004.48 1003.99 1004.13 1004.35 1005.59 1006.63 1007.58 1008.38 1009.05 1009.76 1010.62 1011.12 1011.68 1012.05 1012.43 1012.74 1012.93 1013.27 1013.71 1014.22 1014.64
1020.12 1018.25 1017.40 1017.66 1017.77 1018.41 1018.40 1018.10 1017.53 1016.93 1015.61 1014.37 1011.72 1009.85 1008.55 1009.30 1009.45 1008.97 1008.90 1008.69 1007.84 1006.70 1005.99 1005.06 1004.59 1004.57 1004.14 1004.59 1005.78 1006.73 1007.50 1008.25 1008.74 1009.49 1010.20 1010.86 1011.31 1011.44 1011.56 1011.94 1012.62 1013.01 1013.34 1013.77
1021.01 1019.57 1018.33 1018.38 1018.59 1018.82 1018.89 1018.57 1017.89 1017.39 1015.77 1013.84 1011.82 1011.29 1010.89 1011.14 1011.51 1011.47 1010.70 1010.28 1009.37 1008.56 1007.68 1006.78 1005.63 1005.09 1003.96 1004.00 1005.01 1006.14 1006.84 1007.57 1008.17 1008.46 1009.14 1009.76 1010.08 1010.48 1010.82 1011.27 1011.55 1012.09 1012.52 1012.98
1021.22 1020.81 1019.11 1019.06 1018.72 1018.38 1018.85 1018.44 1017.81 1016.92 1016.28 1015.33 1014.15 1013.42 1014.01 1014.13 1014.33 1013.78 1013.08 1012.27 1011.17 1010.34 1009.52 1008.37 1007.56 1006.92 1005.54 1004.10 1004.63 1005.83 1006.64 1007.34 1007.88 1008.29 1008.57 1009.12 1009.49 1009.90 1010.32 1010.56 1010.66 1011.00 1011.70 1012.16
1021.22 1020.83 1019.62 1018.44 1018.30 1018.23 1018.02 1017.50 1017.42 1017.05 1016.48 1016.33 1016.26 1015.17 1015.58 1015.98 1015.97 1015.49 1014.63 1013.63 1012.59 1011.81 1010.88 1010.03 1009.32 1009.12 1008.29 1007.36 1006.64 1005.89 1006.67 1007.15 1007.54 1007.54 1008.14 1008.40 1008.85 1009.32 1009.53 1009.69 1009.92 1010.44 1010.87 1011.41
1021.47 1020.74 1019.43 1018.26 1018.63 1018.32 1018.08 1017.40 1017.19 1016.85 1016.94 1016.06 1016.68 1015.90 1016.44 1016.47 1016.60 1016.38 1015.46 1014.52 1013.30 1013.09 1012.17 1011.32 1010.45 1010.39 1010.48 1010.00 1009.45 1009.00 1008.61 1008.46 1007.96 1007.84 1008.03 1008.37 1008.70 1008.93 1008.93 1009.18 1009.59 1009.98 1010.31 1010.79
1021.62 1020.82 1020.02 1019.51 1019.29 1019.07 1018.57 1018.14 1017.76 1017.28 1016.47 1016.09 1016.59 1016.47 1017.02 1017.04 1017.06 1016.73 1015.83 1015.51 1014.86 1013.62 1012.60 1012.16 1011.84 1011.93 1012.17 1011.85 1011.25 1010.67 1010.22 1009.93 1009.30 1008.86 1008.62 1008.73 1008.98 1008.84 1008.77 1008.91 1009.20 1009.50 1009.76 1010.32
1021.23 1020.61 1019.91 1019.47 1019.26 1019.07 1018.87 1018.49 1017.90 1017.09 1016.03 1016.84 1017.37 1017.68 1018.02 1018.06 1018.04 1017.61 1017.36 1016.70 1015.46 1014.06 1013.87 1013.56 1013.44 1013.51 1013.65 1013.22 1012.74 1012.23 1011.90 1011.54 1011.23 1010.94 1010.73 1010.85 1010.50 1009.93 1009.52 1009.13 1009.03 1009.22 1009.41 1009.76
1021.41 1020.61 1019.86 1018.96 1018.95 1018.75 1018.54 1018.60 1018.24 1017.65 1017.06 1017.24 1017.64 1018.39 1018.79 1018.66 1018.39 1017.98 1017.37 1016.84 1015.88 1015.26 1014.62 1014.62 1014.62 1014.54 1014.61 1014.60 1014.23 1013.89 1013.58 1013.24 1013.08 1012.83 1012.63 1012.37 1011.95 1011.58 1011.29 1010.84 1010.34 1010.02 1009.65 1009.62
1021.93 1021.35 1020.22 1018.84 1018.71 1018.41 1018.50 1018.99 1018.76 1018.44 1018.37 1018.26 1018.47 1019.13 1018.90 1018.77 1018.59 1018.25 1017.86 1017.56 1016.90 1016.43 1016.24 1016.06 1016.04 1015.87 1015.76 1015.78 1015.56 1015.15 1014.88 1014.46 1014.13 1014.07 1014.19 1013.78 1013.42 1013.10 1012.57 1012.05 1011.54 1011.13 1010.85 1010.70
1022.29 1021.61 1020.55 1019.22 1018.51 1018.34 1018.79 1019.10 1019.18 1018.98 1019.00 1019.01 1018.96 1018.90 1018.79 1018.60 1018.55 1018.57 1018.35 1018.22 1017.97 1017.71 1017.63 1017.55 1017.43 1017.18 1016.97 1016.91 1016.55 1016.34 1015.84 1015.42 1015.34 1015.25 1015.02 1014.75 1014.30 1014.10 1013.45 1013.02 1012.74 1012.07 1011.97 1011.75
1022.25 1021.61 1020.52 1019.56 1018.56 1018.50 1018.42 1018.65 1019.23 1019.21 1019.11 1019.03 1018.88 1018.76 1018.63 1018.35 1017.65 1018.22 1018.63 1018.71 1018.88 1018.89 1018.96 1019.04 1018.90 1018.76 1018.49 1018.33 1018.06 1017.63 1017.08 1016.67 1016.49 1016.36 1015.91 1015.58 1015.07 1014.45 1014.23 1013.60 1013.19 1012.65 1012.59 1012.39
1021.70 1021.44 1021.02 1019.63 1018.59 1017.85 1017.79 1018.28 1018.87 1019.19 1018.52 1018.23 1018.57 1018.41 1018.33 1018.07 1017.82 1018.73 1019.14 1019.37 1019.53 1020.01 1020.08 1020.08 1019.97 1019.86 1019.70 1019.57 1019.26 1018.85 1018.50 1018.07 1017.78 1017.25 1016.83 1016.15 1015.49 1015.00 1014.67 1014.32 1013.60 1013.03 1012.61 1012.22
1021.66 1021.10 1020.40 1019.54 1018.71 1017.83 1017.79 1018.27 1018.88 1018.89 1018.20 1017.87 1018.17 1018.32 1018.45 1018.45 1019.10 1019.43 1019.75 1020.04 1020.33 1020.58 1020.73 1020.76 1020.69 1020.70 1020.75 1020.32 1019.75 1019.45 1019.31 1019.15 1018.98 1018.23 1017.45 1016.82 1016.33 1015.78 1015.38 1014.94 1014.25 1013.40 1012.96 1012.44
1021.34 1020.84 1020.11 1019.78 1018.81 1018.16 1018.09 1018.50 1018.60 1018.35 1018.10 1018.14 1018.32 1018.43 1018.67 1019.02 1019.35 1019.68 1019.99 1020.40 1020.84 1021.13 1021.29 1021.47 1021.40 1021.42 1021.39 1021.12 1020.73 1020.44 1020.19 1020.03 1019.44 1018.61 1017.83 1017.18 1016.68 1016.15 1015.48 1015.14 1014.49 1014.01 1013.65 1013.11
1021.29 1020.56 1020.41 1019.86 1018.53 1018.13 1018.25 1018.26 1018.45 1018.57 1018.50 1018.77 1018.87 1018.99 1019.20 1019.37 1019.71 1020.08 1020.35 1020.66 1021.19 1021.69 1021.91 1022.18 1022.29 1022.28 1022.21 1022.01 1021.72 1021.32 1021.14 1020.50 1019.77 1018.98 1018.24 1017.66 1017.09 1016.56 1016.03 1015.35 1014.79 1014.28 1013.92 1013.62
1020.69 1020.81 1020.68 1020.14 1018.40 1018.21 1018.22 1018.48 1018.73 1018.83 1018.93 1019.21 1019.34 1019.48 1019.63 1019.76 1020.13 1020.36 1020.76 1021.10 1021.43 1021.94 1022.34 1022.73 1022.78 1022.79 1022.78 1022.68 1022.53 1022.41 1021.94 1021.20 1020.21 1019.31 1018.55 1017.83 1017.21 1016.69 1016.29 1015.90 1015.42 1014.90 1014.56 1014.15
1020.59 1020.69 1019.98 1019.51 1018.64 1018.80 1018.47 1018.54 1018.67 1019.20 1019.51 1019.78 1019.95 1020.19 1020.45 1020.66 1020.78 1021.09 1021.37 1021.70 1022.09 1022.51 1022.90 1023.32 1023.41 1023.41 1023.39 1023.21 1022.97 1022.62 1022.23 1021.62 1020.85 1020.15 1019.49 1018.87 1018.28 1017.68 1016.96 1016.35 1015.83 1015.43 1015.08 1014.63
1019.33 1018.62 1018.72 1017.80 1017.33 1017.60 1017.59 1018.10 1018.93 1019.50 1019.90 1020.33 1020.72 1021.02 1021.33 1021.65 1021.85 1022.10 1022.29 1022.59 1022.83 1023.10 1023.42 1023.71 1023.83 1023.85 1023.81 1023.78 1023.54 1023.20 1022.89 1022.46 1021.79 1020.80 1020.09 1019.52 1018.91 1018.19 1017.63 1017.04 1016.24 1015.79 1015.37 1014.87
Wind_Speed
2 4 6 5 6 11 10 10 13 13 7 13 13 16 19 17 19 17 19 19 17 20 17 15 16 18 18 16 17 20 18 16 11 10 10 9 10 9 8 9 12 13 12 13
4 7 6 8 7 9 11 14 14 14 12 12 16 22 20 21 19 18 18 19 19 17 16 15 14 17 19 19 18 17 19 18 14 11 10 9 9 9 8 8 11 12 13 13
8 7 6 6 6 7 10 13 13 14 13 15 17 21 19 21 26 22 22 22 21 19 19 18 15 18 18 20 21 20 20 18 17 15 10 11 10 9 10 11 9 11 13 13
8 4 6 8 11 9 11 5 8 9 7 5 6 11 15 12 13 20 23 23 24 25 21 19 18 18 18 19 19 17 16 18 18 18 14 19 13 13 11 10 10 10 15 15
4 6 8 10 7 2 4 6 8 9 10 12 11 9 7 8 14 18 16 19 21 21 22 21 20 16 16 17 17 17 18 18 18 18 18 15 16 12 9 9 13 13 13 14
17 11 9 8 7 6 7 7 9 8 5 8 13 13 16 18 18 18 17 17 16 18 20 22 20 17 16 16 16 16 18 18 18 18 21 22 20 15 12 12 11 11 10 12
12 6 4 5 5 6 6 2 3 4 5 7 4 11 22 18 23 21 21 19 18 16 18 20 20 18 17 18 18 17 20 20 20 20 19 21 21 18 17 15 13 13 11 12
7 3 4 6 5 6 8 6 4 6 4 7 5 9 11 9 15 14 14 16 18 21 19 19 17 16 15 17 19 20 19 20 20 20 20 18 18 13 13 15 12 11 12 13
5 5 2 4 7 1 3 6 6 6 9 9 10 18 18 10 10 10 13 15 16 15 18 19 12 19 16 17 18 19 19 18 17 20 18 18 16 18 16 17 14 12 14 12
3 9 1 3 5 0 4 5 2 4 5 7 7 13 8 15 17 19 14 11 12 12 12 12 11 15 13 15 15 16 17 16 18 19 17 16 18 19 17 14 16 16 15 15
2 5 2 1 6 3 3 4 6 6 5 5 7 3 5 10 13 12 11 10 11 11 9 7 8 12 13 7 11 13 14 15 14 14 14 15 15 17 15 15 15 16 15 14
2 5 6 3 0 4 8 10 10 5 3 5 4 7 5 8 10 9 8 9 9 9 8 12 13 13 15 15 16 2 11 11 12 12 14 14 14 14 15 16 17 13 14 14
4 3 7 4 1 2 4 6 12 12 4 11 5 4 4 7 9 10 10 10 11 8 9 10 13 15 14 14 14 14 14 12 8 7 8 10 12 13 14 14 13 13 12 14
4 4 5 8 4 5 4 8 8 8 7 5 6 13 10 12 13 14 14 12 9 9 14 14 14 15 14 14 14 14 15 14 13 10 6 3 8 11 11 11 11 11 10 12
4 5 3 9 4 4 6 12 11 10 15 4 7 7 10 11 11 11 10 8 11 17 15 15 14 13 14 14 15 15 15 15 14 14 13 12 10 11 9 6 7 7 8 11
5 4 5 4 7 4 5 13 14 7 9 4 7 4 6 8 8 8 10 12 11 15 16 16 15 15 15 14 13 12 13 14 13 13 13 12 13 11 10 9 7 7 5 7
4 5 4 2 4 4 3 10 11 5 9 5 4 3 5 5 9 12 12 11 12 15 16 17 15 15 14 13 12 12 11 10 11 11 12 12 11 10 10 9 9 8 7 5
4 6 3 4 5 1 2 5 8 3 7 7 3 4 6 6 8 10 12 13 14 15 15 15 14 14 15 14 14 11 10 11 10 10 11 10 11 10 9 7 7 7 5 5
10 5 4 3 3 1 2 2 3 5 5 3 2 2 1 3 1 11 12 11 11 12 11 11 12 12 13 14 14 12 12 12 12 12 11 10 9 10 10 9 8 5 4 4
5 8 4 3 4 2 2 2 5 2 0 2 3 4 7 9 5 6 11 10 9 9 8 9 10 10 11 13 12 11 12 12 13 13 11 11 11 11 11 11 10 6 5 5
2 3 4 3 3 2 3 3 5 3 3 5 2 4 7 4 4 4 4 6 6 6 8 8 8 8 9 10 9 10 9 12 11 10 9 9 9 9 9 9 8 10 10 8
2 2 2 0 3 3 5 6 3 4 4 3 2 3 3 2 3 3 5 5 5 6 7 8 8 9 10 11 9 10 12 11 10 10 9 9 9 8 7 8 7 8 8 8
3 3 2 5 2 2 2 2 1 1 1 2 1 3 3 2 4 4 4 4 4 4 5 5 5 6 7 7 9 9 11 11 11 9 10 9 9 9 9 9 9 7 7 7
5 4 4 3 2 10 5 3 3 2 2 2 2 2 2 1 2 2 3 3 3 3 3 4 5 6 6 6 6 7 9 10 9 10 11 11 10 11 9 7 7 6 7 7
1 7 4 6 7 4 9 8 6 5 3 3 2 2 1 3 2 4 3 4 3 3 2 3 5 5 6 7 8 9 10 10 10 10 10 10 9 10 10 10 9 7 7 9
10 9 8 7 5 1 2 11 8 7 6 4 1 0 2 2 3 3 3 3 3 4 3 3 4 5 6 6 7 8 8 8 8 8 8 8 9 8 8 8 9 12 14 15
Wind_Direction
29 277 244 283 274 282 288 273 274 274 272 300 272 272 273 265 253 249 256 258 250 243 233 225 194 202 199 207 195 188 187 193 187 194 205 197 196 193 196 191 192 196 198 192
256 274 326 292 264 271 269 269 274 280 275 269 284 280 270 264 258 254 244 259 255 246 245 232 190 200 198 201 203 192 195 192 190 193 195 208 202 197 199 197 193 202 196 191
262 303 279 307 269 264 260 264 272 275 306 285 278 280 262 247 247 249 248 248 252 256 245 240 212 200 203 203 204 205 194 191 196 196 193 207 198 201 200 200 201 198 201 198
283 281 284 280 261 268 292 325 294 282 286 280 33 292 296 298 272 238 235 239 246 245 245 239 234 204 206 209 204 206 201 194 196 193 199 207 202 197 203 202 192 196 205 200
314 294 286 284 284 176 261 328 295 288 278 298 251 262 272 255 265 265 254 238 240 253 251 245 231 227 204 209 207 194 200 199 197 196 202 209 210 205 194 195 196 201 199 203
261 279 297 246 299 264 278 315 272 272 267 248 238 221 270 257 267 266 267 278 275 251 257 242 238 227 202 207 205 195 194 196 197 204 205 213 211 204 194 195 200 199 195 197
301 264 208 240 281 265 251 261 278 219 202 252 281 218 250 300 296 292 297 283 275 284 253 256 236 230 208 200 199 201 198 199 202 204 208 214 214 210 210 196 200 193 197 198
338 325 190 147 230 301 198 203 259 289 288 296 288 240 247 297 333 301 291 289 293 274 271 261 251 239 222 200 199 197 202 207 201 205 210 212 215 214 216 210 204 203 203 203
321 255 188 220 297 49 60 210 292 284 255 270 247 269 269 42 0 343 328 309 300 284 272 276 269 281 239 197 203 202 199 209 205 209 210 209 212 216 216 215 210 210 209 208
301 288 333 9 21 328 224 338 181 195 272 274 273 288 301 344 329 323 316 302 312 319 304 292 282 269 258 207 197 204 205 203 209 211 209 211 211 216 222 219 215 215 217 208
226 237 320 174 202 201 165 206 236 293 266 293 311 289 352 323 334 326 318 321 344 339 328 342 356 345 333 253 197 193 205 207 207 209 214 215 217 219 219 221 223 220 218 212
352 304 283 271 2 284 271 253 218 242 222 221 271 286 347 354 317 313 317 335 357 357 19 36 37 27 21 21 14 274 200 213 215 208 219 218 219 219 217 220 226 224 220 219
1 256 293 171 182 150 260 270 256 256 251 242 263 290 18 351 343 336 343 351 10 356 30 44 43 37 29 24 23 25 24 13 339 227 220 223 223 222 221 223 227 228 219 221
285 262 269 311 348 313 350 341 319 256 244 273 278 305 12 5 348 343 349 345 341 22 28 29 33 32 22 21 22 21 21 14 11 18 358 272 235 228 229 229 224 224 212 224
354 273 312 301 263 266 4 3 354 339 235 233 24 16 354 351 339 331 325 337 15 27 23 28 28 26 20 17 15 17 19 18 19 29 34 20 8 13 359 304 245 226 215 224
345 282 308 237 212 286 322 4 353 7 5 115 82 36 347 334 328 339 354 3 6 18 22 23 26 27 21 14 13 15 15 18 19 22 23 15 10 14 12 1 5 5 313 256
293 321 302 317 346 310 250 355 344 355 25 350 50 339 315 349 7 11 1 7 12 20 20 19 19 17 14 11 4 15 11 12 26 23 15 9 5 2 3 359 5 7 4 346
283 308 276 302 282 332 11 321 314 8 33 26 67 5 12 16 54 28 20 19 17 14 17 17 14 16 19 12 11 7 14 24 22 21 14 4 3 351 350 355 355 1 348 342
218 289 301 299 360 38 231 346 1 360 24 333 359 13 60 343 262 51 29 26 28 22 23 17 13 14 16 17 8 9 13 17 16 8 5 356 354 354 343 349 340 340 317 308
241 239 275 304 289 303 92 160 167 321 198 182 330 340 331 322 25 22 7 19 29 29 24 13 10 16 17 8 2 13 14 12 8 356 346 344 351 353 347 341 336 327 317 307
257 213 260 254 263 264 94 131 141 253 95 145 238 332 353 11 16 31 22 28 28 24 17 10 25 28 11 356 351 17 15 16 345 331 332 343 347 346 344 336 339 339 335 332
229 228 217 296 257 255 134 120 239 17 45 79 329 356 352 38 40 28 29 31 24 22 24 16 19 19 10 7 6 14 17 344 333 327 337 344 344 345 342 336 338 341 337 334
236 225 276 231 333 91 183 290 354 291 25 75 4 39 356 26 25 26 21 23 34 20 25 26 23 11 17 5 12 8 349 341 334 337 352 353 347 350 347 347 350 349 347 343
214 165 226 330 197 232 235 218 231 197 133 127 98 71 55 67 356 346 5 9 32 33 24 14 17 12 6 3 12 7 343 337 337 351 355 354 354 355 358 360 3 352 350 344
8 159 184 252 254 281 242 230 187 164 142 134 102 32 17 331 317 338 337 340 9 28 42 31 19 359 1 359 4 360 353 352 357 349 354 354 348 352 352 355 354 356 352 348
184 186 187 215 169 177 164 173 168 171 178 145 127 252 85 360 327 345 329 4 358 6 24 25 8 357 4 1 351 351 349 348 341 350 357 350 346 351 353 350 347 4 5 19